(55326) = 1996 UB5 = 1999 KD8 = 2001 SR107

Discovered at Socorro on 2001-09-20 by LINEAR.

Orbit

Orbit type: Main Belt

Note: WebGL enabled browser required.

epoch2023-09-13.0
epoch JD2460200.5
perihelion date2020-04-08.49647
perihelion JD2458947.99647
argument of perihelion (°)27.85937
ascending node (°)18.40269
inclination (°)14.32908
eccentricity0.0695890
perihelion distance (AU)2.5828686
Tisserand w.r.t. Jupiter3.3
ΔV w.r.t. Earth (km/sec)11.0
semimajor axis (AU)2.7760512
mean anomaly (°)266.89571
mean daily motion (°/day)0.21308980
aphelion distance (AU)2.969
period (years)4.63
P-vector [x]0.69595045
P-vector [y]0.60422934
P-vector [z]0.38802047
Q-vector [x]-0.71382665
Q-vector [y]0.52333129
Q-vector [z]0.46537713
absolute magnitude13.92
phase slope0.15
uncertainty0
referenceMPEC 2024-A55
observations used2300
oppositions20
arc length (days)10803
first opposition used1994
last opposition used2023
residual rms (arc-secs)0.63
perturbers coarse indicatorM-v
perturbers precise indicator003Ek
first observation date used1994-04-03.0
last observation date used2023-10-31.0
computer nameMPCLINUX
JD of orbit computation2456937.292596
perihelion JD uncertainty (days)1.8931E-04
argument of perihelion uncertainty (°)4.2709E-05
ascending node uncertainty (°)1.7222E-05
inclination uncertainty (°)6.3899E-06
eccentricity uncertainty 5.5341E-08
perihelion distance uncertainty (AU)1.6164E-07
Minimum Orbit Intersection Distances (in AU)
for orbit epoch: 2460200.5, reference: E2024-A55
Mercury2.26267
Venus1.8682
Earth1.59593
Mars1.13512
Jupiter2.32997
Saturn6.51335
Uranus15.5729
Neptune27.2411

Observations

2345 total observations over interval: 1994 04 03.31166 – 2023 10 31.789007
These data are available for download (format description).

Date (UT) J2000 RA J2000 Dec Magn Location Ref
1994 04 03.31166 12 28 21.09 +01 14 54.3   691 – Steward Observatory, Kitt Peak-Spacewatch MPS 43901
1994 04 03.34068 12 28 19.41 +01 14 56.6 18.0 V 691 – Steward Observatory, Kitt Peak-Spacewatch MPS 43901
1994 04 03.36938 12 28 17.73 +01 14 59.0   691 – Steward Observatory, Kitt Peak-Spacewatch MPS 43901
1996 10 17.57982 00 49 20.00 +04 44 46.9 17.5 V 566 – Haleakala-NEAT/GEODSS MPC 28396
1996 10 17.59674 00 49 19.04 +04 44 46.2 17.7 V 566 – Haleakala-NEAT/GEODSS MPC 28396
1996 10 17.60693 00 49 18.39 +04 44 46.1 17.8 V 566 – Haleakala-NEAT/GEODSS MPC 28396
1996 10 19.91799 00 47 05.70 +04 45 15.5 17.8 V 910 – Caussols-ODAS MPC 28555
1996 10 19.92809 00 47 05.11 +04 45 15.8 17.7 V 910 – Caussols-ODAS MPC 28555
1996 10 19.93818 00 47 04.52 +04 45 15.8 17.8 V 910 – Caussols-ODAS MPC 28555
1999 05 18.15195 13 53 59.54 -20 33 32.5 18.5   704 – Lincoln Laboratory ETS, New Mexico MPS 5236
1999 05 18.17975 13 53 58.28 -20 33 29.1 18.6   704 – Lincoln Laboratory ETS, New Mexico MPS 5236
1999 05 18.19366 13 53 57.65 -20 33 26.8 19.4   704 – Lincoln Laboratory ETS, New Mexico MPS 5236
1999 05 19.15257 13 53 12.41 -20 31 54.0 18.6   704 – Lincoln Laboratory ETS, New Mexico MPS 5236
1999 05 19.16647 13 53 11.55 -20 31 54.0 18.5   704 – Lincoln Laboratory ETS, New Mexico MPS 5236
1999 05 19.18037 13 53 11.08 -20 31 53.9 18.5   704 – Lincoln Laboratory ETS, New Mexico MPS 5236
1999 05 19.19432 13 53 10.28 -20 31 51.9 18.5   704 – Lincoln Laboratory ETS, New Mexico MPS 5236
2001 07 27.41205 03 14 32.04 +20 49 07.3 19.2 R 699 – Lowell Observatory-LONEOS MPS 38187
2001 07 27.42764 03 14 33.19 +20 49 16.4   699 – Lowell Observatory-LONEOS MPS 38187
2001 07 27.44328 03 14 34.35 +20 49 22.8   699 – Lowell Observatory-LONEOS MPS 38187
2001 07 27.45889 03 14 35.47 +20 49 32.3   699 – Lowell Observatory-LONEOS MPS 38187
2001 08 22.42943 03 42 55.32 +24 33 47.6 19.3   704 – Lincoln Laboratory ETS, New Mexico MPS 38187
2001 08 22.44328 03 42 55.99 +24 33 53.5 19.1   704 – Lincoln Laboratory ETS, New Mexico MPS 38187
2001 08 22.45686 03 42 56.76 +24 34 00.4 18.8   704 – Lincoln Laboratory ETS, New Mexico MPS 38187
2001 09 10.41165 03 56 58.13 +27 08 39.8 18.5   704 – Lincoln Laboratory ETS, New Mexico MPS 38187
2001 09 10.42651 03 56 58.52 +27 08 46.7 18.3   704 – Lincoln Laboratory ETS, New Mexico MPS 38187
2001 09 10.44236 03 56 59.07 +27 08 54.7 18.5   704 – Lincoln Laboratory ETS, New Mexico MPS 38187
2001 09 10.45790 03 56 59.50 +27 09 03.1 18.3   704 – Lincoln Laboratory ETS, New Mexico MPS 38187
2001 09 20.40193 04 01 07.26 +28 27 49.1 17.9   704 – Lincoln Laboratory ETS, New Mexico MPS 36630
2001 09 20.41708 04 01 07.48 +28 27 56.5 18.3   704 – Lincoln Laboratory ETS, New Mexico MPS 36630
2001 09 20.43138 04 01 07.68 +28 28 03.0 18.7   704 – Lincoln Laboratory ETS, New Mexico MPS 36630
2001 09 20.44606 04 01 07.88 +28 28 09.9 18.8   704 – Lincoln Laboratory ETS, New Mexico MPS 36630
2001 09 20.46065 04 01 08.14 +28 28 17.0 18.5   704 – Lincoln Laboratory ETS, New Mexico MPS 36630
2001 09 22.34224 04 01 37.16 +28 42 55.8 17.6   704 – Lincoln Laboratory ETS, New Mexico MPS 36630
2001 09 22.35688 04 01 37.33 +28 43 02.8 17.8   704 – Lincoln Laboratory ETS, New Mexico MPS 36630
2001 09 22.37329 04 01 37.53 +28 43 10.4 18.1   704 – Lincoln Laboratory ETS, New Mexico MPS 36630
2001 09 22.38773 04 01 37.68 +28 43 17.3 18.0   704 – Lincoln Laboratory ETS, New Mexico MPS 36630
2001 09 22.40189 04 01 37.86 +28 43 23.9 17.8   704 – Lincoln Laboratory ETS, New Mexico MPS 36630
2001 09 24.47999 04 02 02.38 +28 59 29.4 18.1   644 – Palomar Mountain/NEAT MPS 43901
2001 09 24.50152 04 02 02.55 +28 59 39.4 18.0   644 – Palomar Mountain/NEAT MPS 43901
2001 09 24.52233 04 02 02.72 +28 59 49.0 17.9   644 – Palomar Mountain/NEAT MPS 43901
2001 10 09.38513 04 01 07.00 +30 50 04.1 17.5   704 – Lincoln Laboratory ETS, New Mexico MPS 38187
2001 10 09.39997 04 01 06.70 +30 50 10.0 17.7   704 – Lincoln Laboratory ETS, New Mexico MPS 38187
2001 10 09.41480 04 01 06.39 +30 50 16.0 17.6   704 – Lincoln Laboratory ETS, New Mexico MPS 38187
2001 10 09.42965 04 01 06.07 +30 50 22.6 17.7   704 – Lincoln Laboratory ETS, New Mexico MPS 38187
2001 10 09.44508 04 01 05.77 +30 50 29.5 17.8   704 – Lincoln Laboratory ETS, New Mexico MPS 38187
2001 10 14.32672 03 59 13.82 +31 23 49.0 17.4   704 – Lincoln Laboratory ETS, New Mexico MPS 38187
2001 10 14.34269 03 59 13.36 +31 23 55.4 17.9   704 – Lincoln Laboratory ETS, New Mexico MPS 38187
2001 10 14.35844 03 59 12.89 +31 24 02.0 17.8   704 – Lincoln Laboratory ETS, New Mexico MPS 38187
2001 10 14.37421 03 59 12.42 +31 24 08.2 17.9   704 – Lincoln Laboratory ETS, New Mexico MPS 38187
2001 10 14.38997 03 59 11.95 +31 24 14.7 17.9   704 – Lincoln Laboratory ETS, New Mexico MPS 38187
2001 10 15.32551 03 58 44.94 +31 30 22.0 17.6   704 – Lincoln Laboratory ETS, New Mexico MPS 38187
2001 10 15.34129 03 58 44.46 +31 30 28.5 17.5   704 – Lincoln Laboratory ETS, New Mexico MPS 38187
2001 10 15.35705 03 58 43.97 +31 30 34.7 17.8   704 – Lincoln Laboratory ETS, New Mexico MPS 38187
2001 10 15.37281 03 58 43.46 +31 30 41.3 17.7   704 – Lincoln Laboratory ETS, New Mexico MPS 38187
2001 10 15.38859 03 58 42.99 +31 30 47.7 17.7   704 – Lincoln Laboratory ETS, New Mexico MPS 38187
2001 10 19.34401 03 56 29.57 +31 55 46.6 17.7   704 – Lincoln Laboratory ETS, New Mexico MPS 40539
2001 10 19.36036 03 56 28.89 +31 55 52.9 17.8   704 – Lincoln Laboratory ETS, New Mexico MPS 40539
2001 10 19.37666 03 56 28.23 +31 55 59.0 17.7   704 – Lincoln Laboratory ETS, New Mexico MPS 40539
2001 10 19.39326 03 56 27.56 +31 56 04.8 17.8   704 – Lincoln Laboratory ETS, New Mexico MPS 40539
2001 10 19.40947 03 56 26.95 +31 56 10.6 17.8   704 – Lincoln Laboratory ETS, New Mexico MPS 40539
2001 10 27.25238 03 50 36.15 +32 40 00.9 17.4   704 – Lincoln Laboratory ETS, New Mexico MPS 43901
2001 10 27.26875 03 50 35.29 +32 40 05.5 17.7   704 – Lincoln Laboratory ETS, New Mexico MPS 43901
2001 10 27.28513 03 50 34.52 +32 40 12.3 18.9   704 – Lincoln Laboratory ETS, New Mexico MPS 43901
2001 10 27.30150 03 50 33.54 +32 40 16.4 17.7   704 – Lincoln Laboratory ETS, New Mexico MPS 43901
2001 10 27.31822 03 50 32.66 +32 40 21.1 17.7   704 – Lincoln Laboratory ETS, New Mexico MPS 43901
2001 11 12.27963 03 34 04.87 +33 38 28.2 17.7   704 – Lincoln Laboratory ETS, New Mexico MPS 43901
2001 11 12.29436 03 34 03.83 +33 38 30.1 17.6   704 – Lincoln Laboratory ETS, New Mexico MPS 43901
2001 11 12.30912 03 34 02.78 +33 38 32.2 17.7   704 – Lincoln Laboratory ETS, New Mexico MPS 43901
2001 11 12.32383 03 34 01.72 +33 38 34.5 17.6   704 – Lincoln Laboratory ETS, New Mexico MPS 43901
2001 11 12.33855 03 34 00.70 +33 38 36.5 17.6   704 – Lincoln Laboratory ETS, New Mexico MPS 43901
2001 12 07.45838 03 06 31.55 +33 34 25.6 17.8   644 – Palomar Mountain/NEAT MPS 43901
2001 12 07.46882 03 06 30.98 +33 34 24.4 17.8   644 – Palomar Mountain/NEAT MPS 43901
2001 12 07.47983 03 06 30.38 +33 34 22.9 18.1   644 – Palomar Mountain/NEAT MPS 43901
2001 12 09.23548 03 04 59.84 +33 30 51.9 17.3   704 – Lincoln Laboratory ETS, New Mexico MPS 43901
2001 12 09.25045 03 04 59.06 +33 30 49.8 17.6   704 – Lincoln Laboratory ETS, New Mexico MPS 43901
2001 12 09.26542 03 04 58.27 +33 30 48.3 17.5   704 – Lincoln Laboratory ETS, New Mexico MPS 43901
2001 12 09.28040 03 04 57.50 +33 30 46.4 17.4   704 – Lincoln Laboratory ETS, New Mexico MPS 43901
2001 12 09.29537 03 04 56.72 +33 30 44.5 17.4   704 – Lincoln Laboratory ETS, New Mexico MPS 43901
2001 12 22.15125 02 56 43.20 +32 59 53.2 18.5   704 – Lincoln Laboratory ETS, New Mexico MPS 43901
2001 12 22.16622 02 56 42.74 +32 59 50.5 18.7   704 – Lincoln Laboratory ETS, New Mexico MPS 43901
2001 12 22.18118 02 56 42.35 +32 59 48.5 18.7   704 – Lincoln Laboratory ETS, New Mexico MPS 43901
2001 12 22.19616 02 56 41.90 +32 59 46.6 18.6   704 – Lincoln Laboratory ETS, New Mexico MPS 43902
2001 12 22.21115 02 56 41.45 +32 59 44.0 18.7   704 – Lincoln Laboratory ETS, New Mexico MPS 43902
2002 01 05.09695 02 54 03.84 +32 28 28.1 17.8   644 – Palomar Mountain/NEAT MPS 46608
2002 01 05.11863 02 54 03.86 +32 28 25.8 18.0   644 – Palomar Mountain/NEAT MPS 46608
